Grafton, ND

2:27 AM CST on February 24, 2017 (GMT -0600)
Grafton Municipal

Weather History for KGAF - June, 2013

Change the Weather History Date:

Saturday, June 15, 2013

  Actual Average Record
Temperature  
Mean Temperature 66 °F -  
Max Temperature 78 °F 76 °F 95 °F (1979)
Min Temperature 53 °F 51 °F 38 °F (1961)
Growing Degree Days 16 (Base 50)    
Moisture  
Dew Point 50 °F    
Average Humidity 57    
Maximum Humidity 94    
Minimum Humidity 30    
Precipitation  
Precipitation 0.00 in - - ()
Sea Level Pressure  
Sea Level Pressure 29.81 in    
Wind  
Wind Speed 14 mph (WSW)    
Max Wind Speed 28 mph    
Max Gust Speed 34 mph    
Visibility 10 miles    
Events      
Averages and records for this station are not official NWS values.
T = Trace of Precipitation, MM = Missing Value Source: NWS Daily Summary

Daily Weather History Graph

Daily Weather History Graph

Search for Another Location

Airport or City:

Trip Planner

Search our weather history database for the weather conditions in past years. The results will help you decide how hot, cold, wet, or windy it might be!

Date:

Astronomy

Jun. 15, 2013 Rise Set
Actual Time 5:27 AM CDT 9:32 PM CDT
Civil Twilight 4:45 AM CDT 10:14 PM CDT
Nautical Twilight 3:47 AM CDT 11:13 PM CDT
Astronomical Twilight 1:58 AM CDT 1:03 AM CDT
Moon 12:33 PM CDT (6/15) 12:41 AM CDT (6/15)
Length of Visible Light 17h 28m
Length of Day
16h 05m
Waxing Crescent, 40% of the Moon is Illuminated
Jun 15
Waxing Crescent
Jun 16
First Quarter
Jun 23
Full
Jun 29
Last Quarter
Jul 8
New

Hourly Weather History & Observations

Time (CDT) Temp. Dew Point Humidity Pressure Visibility Wind Dir Wind Speed Gust Speed Precip Events Conditions
12:15 AM 66.2 °F 62.6 °F 88% 29.80 in 10.0 mi West 16.1 mph 21.9 mph N/A   Clear
12:35 AM 66.2 °F 57.2 °F 73% 29.81 in 10.0 mi WNW 13.8 mph 18.4 mph N/A   Clear
12:55 AM 64.4 °F 55.4 °F 73% 29.81 in 10.0 mi West 10.4 mph - N/A   Clear
1:15 AM 64.4 °F 53.6 °F 68% 29.82 in 10.0 mi West 9.2 mph - N/A   Clear
1:35 AM 62.6 °F 50.0 °F 63% 29.81 in 10.0 mi West 11.5 mph - N/A   Clear
1:55 AM 62.6 °F 50.0 °F 63% 29.82 in 10.0 mi WNW 17.3 mph - N/A   Clear
2:15 AM 62.6 °F 50.0 °F 63% 29.82 in 10.0 mi WNW 13.8 mph - N/A   Clear
2:35 AM 60.8 °F 50.0 °F 68% 29.81 in 10.0 mi WNW 11.5 mph - N/A   Clear
2:55 AM 59.0 °F 50.0 °F 72% 29.82 in 10.0 mi West 10.4 mph - N/A   Clear
3:15 AM 59.0 °F 50.0 °F 72% 29.83 in 10.0 mi West 10.4 mph - N/A   Clear
3:35 AM 59.0 °F 50.0 °F 72% 29.83 in 10.0 mi West 10.4 mph - N/A   Clear
3:55 AM 57.2 °F 50.0 °F 77% 29.84 in 10.0 mi West 11.5 mph - N/A   Clear
4:15 AM 57.2 °F 50.0 °F 77% 29.84 in 10.0 mi West 11.5 mph - N/A   Clear
4:35 AM 53.6 °F 50.0 °F 88% 29.84 in 10.0 mi SW 6.9 mph - N/A   Clear
4:55 AM 53.6 °F 50.0 °F 88% 29.84 in 10.0 mi SW 6.9 mph - N/A   Clear
5:15 AM 53.6 °F 51.8 °F 94% 29.84 in 10.0 mi WSW 6.9 mph - N/A   Clear
5:35 AM 53.6 °F 51.8 °F 94% 29.84 in 10.0 mi West 8.1 mph - N/A   Clear
5:55 AM 55.4 °F 53.6 °F 94% 29.84 in 10.0 mi West 8.1 mph - N/A   Clear
6:15 AM 55.4 °F 53.6 °F 94% 29.84 in 10.0 mi WSW 6.9 mph - N/A   Clear
6:35 AM 53.6 °F 51.8 °F 94% 29.84 in 10.0 mi SW 6.9 mph - N/A   Clear
6:55 AM 55.4 °F 53.6 °F 94% 29.85 in 10.0 mi SW 8.1 mph - N/A   Clear
7:15 AM 57.2 °F 53.6 °F 88% 29.86 in 10.0 mi SSW 8.1 mph - N/A   Clear
7:35 AM 59.0 °F 53.6 °F 82% 29.87 in 10.0 mi SW 8.1 mph - N/A   Clear
7:55 AM 60.8 °F 53.6 °F 77% 29.87 in 10.0 mi SW 10.4 mph - N/A   Clear
8:15 AM 64.4 °F 53.6 °F 68% 29.86 in 10.0 mi SW 10.4 mph - N/A   Clear
8:35 AM 64.4 °F 53.6 °F 68% 29.85 in 10.0 mi WSW 10.4 mph - N/A   Clear
8:55 AM 66.2 °F 53.6 °F 64% 29.84 in 10.0 mi WSW 9.2 mph - N/A   Clear
9:15 AM 68.0 °F 53.6 °F 60% 29.84 in 10.0 mi SW 10.4 mph - N/A   Clear
9:55 AM 71.6 °F 53.6 °F 53% 29.83 in 10.0 mi SW 11.5 mph 16.1 mph N/A   Clear
10:15 AM 71.6 °F 53.6 °F 53% 29.83 in 10.0 mi SSW 13.8 mph - N/A   Clear
10:35 AM 71.6 °F 53.6 °F 53% 29.83 in 10.0 mi SW 11.5 mph - N/A   Clear
10:55 AM 75.2 °F 50.0 °F 41% 29.82 in 10.0 mi WSW 13.8 mph 20.7 mph N/A   Clear
11:15 AM 75.2 °F 48.2 °F 38% 29.82 in 10.0 mi WSW 19.6 mph 28.8 mph N/A   Clear
11:35 AM 75.2 °F 48.2 °F 38% 29.82 in 10.0 mi West 18.4 mph 23.0 mph N/A   Clear
11:55 AM 75.2 °F 48.2 °F 38% 29.81 in 10.0 mi West 19.6 mph 27.6 mph N/A   Clear
12:15 PM 75.2 °F 48.2 °F 38% 29.81 in 10.0 mi WSW 20.7 mph 33.4 mph N/A   Partly Cloudy
12:35 PM 77.0 °F 46.4 °F 34% 29.81 in 10.0 mi WSW 23.0 mph 27.6 mph N/A   Partly Cloudy
12:55 PM 77.0 °F 46.4 °F 34% 29.81 in 10.0 mi West 25.3 mph 31.1 mph N/A   Partly Cloudy
1:15 PM 77.0 °F 44.6 °F 32% 29.81 in 10.0 mi WSW 25.3 mph 32.2 mph N/A   Partly Cloudy
1:35 PM 77.0 °F 48.2 °F 36% 29.81 in 10.0 mi West 26.5 mph 31.1 mph N/A   Scattered Clouds
1:55 PM 77.0 °F 46.4 °F 34% 29.80 in 10.0 mi WSW 21.9 mph 33.4 mph N/A   Scattered Clouds
2:15 PM 75.2 °F 46.4 °F 36% 29.79 in 10.0 mi West 24.2 mph 31.1 mph N/A   Partly Cloudy
2:35 PM 77.0 °F 44.6 °F 32% 29.79 in 10.0 mi West 23.0 mph 32.2 mph N/A   Partly Cloudy
2:55 PM 78.8 °F 44.6 °F 30% 29.78 in 10.0 mi WSW 25.3 mph 34.5 mph N/A   Partly Cloudy
3:15 PM 77.0 °F 48.2 °F 36% 29.79 in 10.0 mi West 24.2 mph 33.4 mph N/A   Partly Cloudy
3:35 PM 77.0 °F 46.4 °F 34% 29.79 in 10.0 mi West 26.5 mph 33.4 mph N/A   Partly Cloudy
3:55 PM 75.2 °F 46.4 °F 36% 29.79 in 10.0 mi West 19.6 mph 28.8 mph N/A   Scattered Clouds
4:15 PM 75.2 °F 48.2 °F 38% 29.78 in 10.0 mi West 27.6 mph 31.1 mph N/A   Scattered Clouds
4:35 PM 75.2 °F 48.2 °F 38% 29.78 in 10.0 mi West 18.4 mph 33.4 mph N/A   Partly Cloudy
4:55 PM 77.0 °F 48.2 °F 36% 29.78 in 10.0 mi West 23.0 mph 32.2 mph N/A   Partly Cloudy
5:15 PM 75.2 °F 48.2 °F 38% 29.78 in 10.0 mi West 21.9 mph 28.8 mph N/A   Clear
5:35 PM 75.2 °F 48.2 °F 38% 29.77 in 10.0 mi West 23.0 mph 31.1 mph N/A   Partly Cloudy
5:55 PM 73.4 °F 48.2 °F 41% 29.77 in 10.0 mi WSW 21.9 mph 26.5 mph N/A   Scattered Clouds
6:15 PM 75.2 °F 48.2 °F 38% 29.77 in 10.0 mi West 26.5 mph 32.2 mph N/A   Scattered Clouds
6:35 PM 73.4 °F 48.2 °F 41% 29.76 in 10.0 mi WSW 21.9 mph 26.5 mph N/A   Scattered Clouds
6:55 PM 73.4 °F 50.0 °F 44% 29.76 in 10.0 mi West 24.2 mph 29.9 mph N/A   Partly Cloudy
7:15 PM 75.2 °F 50.0 °F 41% 29.77 in 10.0 mi West 20.7 mph 25.3 mph N/A   Partly Cloudy
7:35 PM 73.4 °F 50.0 °F 44% 29.76 in 10.0 mi West 23.0 mph 26.5 mph N/A   Partly Cloudy
7:55 PM 73.4 °F 50.0 °F 44% 29.77 in 10.0 mi West 17.3 mph - N/A   Clear
8:15 PM 73.4 °F 48.2 °F 41% 29.77 in 10.0 mi West 16.1 mph - N/A   Scattered Clouds
8:35 PM 73.4 °F 50.0 °F 44% 29.78 in 10.0 mi West 10.4 mph - N/A   Mostly Cloudy
8:55 PM 73.4 °F 50.0 °F 44% 29.77 in 10.0 mi West 15.0 mph - N/A   Scattered Clouds
9:15 PM 71.6 °F 50.0 °F 46% 29.77 in 10.0 mi West 9.2 mph - N/A   Clear
9:35 PM 68.0 °F 50.0 °F 52% 29.77 in 10.0 mi WNW 9.2 mph - N/A   Clear
9:55 PM 66.2 °F 53.6 °F 64% 29.78 in 10.0 mi West 5.8 mph - N/A   Clear
10:15 PM 62.6 °F 51.8 °F 68% 29.79 in 10.0 mi WSW 8.1 mph - N/A   Clear
10:35 PM 62.6 °F 51.8 °F 68% 29.79 in 10.0 mi WSW 6.9 mph - N/A   Clear
10:55 PM 62.6 °F 51.8 °F 68% 29.80 in 10.0 mi WSW 8.1 mph - N/A   Clear
11:15 PM 62.6 °F 51.8 °F 68% 29.80 in 10.0 mi WSW 6.9 mph - N/A   Clear
11:35 PM 64.4 °F 51.8 °F 64% 29.80 in 10.0 mi West 11.5 mph - N/A   Clear
11:55 PM 64.4 °F 53.6 °F 68% 29.80 in 10.0 mi West 10.4 mph - N/A   Clear